Regional Weather Roundup
Issued by NWS

Home | Current Version | Previous Version | Graphics & Text | Print | Product List | Glossary On
Versions: 1 2 3 4 5 6 7 8 9 10 11 12 13 14 15 16 17 18 19 20 21 22 23 24 25 26 27 28 29 30 31 32 33 34 35 36 37 38 39 40 41 42 43 44 45 46 47 48 49 50
174
ASUS45 KPSR 190110
RWRAZ

ARIZONA HOURLY REGIONAL WEATHER ROUNDUP
NATIONAL WEATHER SERVICE PHOENIX AZ
600 PM MST SAT FEB 18 2017

NOTE: FAIR INDICATES FEW OR NO CLOUDS BELOW 12,000 FEET WITH NO
SIGNIFICANT WEATHER AND/OR OBSTRUCTIONS TO VISIBILITY.

AZZ001>003-036-190200-
NORTHWEST ARIZONA

CITY           SKY/WX    TMP DP  RH WIND       PRES   REMARKS
BULLHEAD CITY  RAIN      57  55  94 CALM      29.55R
KINGMAN        LGT RAIN  50  43  77 SE18      29.56R
$$

AZZ004>008-015-016-018-190200-
NORTH CENTRAL ARIZONA

CITY           SKY/WX    TMP DP  RH WIND       PRES   REMARKS
GRAND CANYON   CLOUDY    40  38  93 E6        29.67F
WILLIAMS       CLOUDY    39  36  87 SE9       29.65S WCI  33
PRESCOTT       LGT RAIN  44  41  89 S14       29.62R FOG
FLAGSTAFF      CLOUDY    38  36  92 CALM      29.67S
PAYSON         DRIZZLE   45  41  87 S10G18    29.69R
PAGE           LGT RAIN  48  39  71 N3        29.65S
$$

AZZ009>014-017-190200-
NORTHEAST ARIZONA

CITY           SKY/WX    TMP DP  RH WIND       PRES   REMARKS
WINSLOW        CLOUDY    55  32  41 SE14      29.64S
SAINT JOHNS    CLOUDY    53  29  39 S13G21    29.67R
WINDOW ROCK    MOCLDY    49  25  39 S7        29.72S
SHOW LOW       MOCLDY    45  28  53 S10G16    29.70R
$$

AZZ023-190200-
GREATER PHOENIX AREA

CITY           SKY/WX    TMP DP  RH WIND       PRES   REMARKS
PHOENIX        LGT RAIN  57  51  80 SE8       29.58R
BUCKEYE        CLOUDY    54  54 100 SW10      29.61R
GLENDALE       CLOUDY    57  57 100 E9        29.60R
LUKE AFB       LGT RAIN  57  52  82 S12       29.58R
DEER VALLEY    LGT RAIN  54  53  97 SE15      29.59R
SCOTTSDALE     LGT RAIN  55  52  89 E9        29.62R
MESA-FALCON    LGT RAIN N/A N/A N/A E6        29.58S
MESA-GATEWAY   LGT RAIN  55  50  82 SE10      29.62S
CHANDLER       PTCLDY    57  46  67 SE13      29.60S
$$

AZZ027-028-190200-
SOUTHWEST MARICOPA COUNTY AND PINAL COUNTY

CITY           SKY/WX    TMP DP  RH WIND       PRES   REMARKS
CASA GRANDE    NOT AVBL
GILA BEND      LGT RAIN  54  50  87 S10       29.60R
$$

AZZ503-504-507>509-190200-
SOUTHEAST ARIZONA

CITY           SKY/WX    TMP DP  RH WIND       PRES   REMARKS
TUCSON         CLOUDY    54  40  59 SE16G24   29.64R
DAVIS-MONTHAN  CLOUDY    53  40  62 SE22G28   29.63R
RYAN FIELD     MOCLDY    54  41  62 CALM      29.65
NOGALES        CLOUDY    43  38  82 S16G23    29.69R
SIERRA VISTA   CLOUDY    41  37  87 SE17      29.70F
DOUGLAS        LGT RAIN  43  40  89 SE14      29.78R
SAFFORD        LGT RAIN  60  37  42 SE3       29.62R
$$

AZZ020-021-025-026-031-190200-
SOUTHWEST ARIZONA

CITY           SKY/WX    TMP DP  RH WIND       PRES   REMARKS
YUMA           LGT RAIN  55  51  86 SW8       29.58R
$$

CAZ031-033-041-043-047-048-061-190200-
SOUTHERN CALIFORNIA

CITY           SKY/WX    TMP DP  RH WIND       PRES   REMARKS
DOWNTOWN L.A.  CLOUDY    59  52  77 W5        29.59R
L.A. AIRPORT   MOCLDY    57  52  83 W15       29.59S
SAN DIEGO      MOCLDY    60  50  69 W7        29.63R
BURBANK        LGT RAIN  56  51  84 CALM      29.58R
ONTARIO        MOCLDY    56  50  80 W6        29.57S
RIVERSIDE      CLOUDY    57  51  80 CALM      29.58R
PALM SPRINGS   CLOUDY    59  54  83 VRB6      29.57S
EL CENTRO NAS  LGT RAIN  57  51  80 CALM      29.60R
IMPERIAL       LGT RAIN  57  52  83 CALM      29.57R
BLYTHE         LGT RAIN  55  55 100 S8        29.56R
NEEDLES        CLOUDY    59  51  75 W6        29.54R
$$

NVZ020-UTZ003-190200-
SOUTHERN NEVADA-UTAH

CITY           SKY/WX    TMP DP  RH WIND       PRES   REMARKS
LAS VEGAS      LGT RAIN  53  49  86 NE9       29.55R
SALT LAKE CITY CLOUDY    52  36  54 SW5       29.58S
$$

NMZ009-TXZ055-190200-
NEW MEXICO-WEST TEXAS

CITY           SKY/WX    TMP DP  RH WIND       PRES   REMARKS
ALBUQUERQUE    CLOUDY    53  31  42 S8        29.77R
EL PASO        PTCLDY    64  26  23 E6        29.65F
$$


........................KEY........................
SKY/WX - SKY CONDITION/WEATHER
TMP    - TEMPERATURE IN FAHRENHEIT
DP     - DEW POINT IN FAHRENHEIT
RH     - RELATIVE HUMIDITY IN PERCENT
WIND   - DIRECTION AND SPEED IN MILES PER HOUR (MPH)
VRB    - VARIABLE WIND DIRECTION
PRES   - MEAN SEA LEVEL PRESSURE IN INCHES OF MERCURY
         F - FALLING PRESSURE   R - RISING PRESSURE
         S - STEADY PRESSURE
VSB    - VISIBILITY IN MILES
HX     - HEAT INDEX IN FAHRENHEIT
WCI    - WIND CHILL INDEX IN FAHRENHEIT
TC     - TEMPERATURE IN CELSIUS WHICH IS ALSO KNOWN AS
         TEMPERATURE IN CENTIGRADE
AFB    - AIR FORCE BASE
         LUKE AFB IS LUKE AIR FORCE BASE
         DAVIS-MONTHAN IS DAVIS-MONTHAN AIR FORCE BASE
NAS    - NAVAL AIR STATION
         EL CENTRO NAS IS EL CENTRO NAVAL AIR STATION
N/A    - NOT AVAILABLE





USA.gov is the U.S. government's official web portal to all federal, state and local government web resources and services.